Location: Bu�n Treun
(12.1333°N, 108.3167°E)
Time: 12:41:47
(UTC+00:00)

deb Chang Zheng 4 - Pass Details

Date: 13 July 2020
Orbit: 603 x 626 km, 98.6° (Epoch: 06 August)

Event Time Altitude Azimuth Distance (km) Brightness Sun altitude
Rises 21:02:29 0° 357° (N) 2,861 7.3 -20.0°
Reaches altitude 10° 21:04:49 10° 347° (NNW) 1,961 6.3 -19.5°
Maximum altitude 21:08:36 32° 284° (WNW) 1,059 4.3 -18.7°
Enters shadow 21:08:38 32° 283° (WNW) 1,059 4.3 -18.7°
